FW1358 Weather Reports


Display with metric or nautical units.
time (UTC)temp
F
wind
direction
speed
MPH
gust
MPH
rain 1hr
in
rain 24hr
in
rain mn
in
humidity
%
barometer
mb
20220812020803 76 183 0.0 0.0 0.00 0.00 0.00 88 1018.3
20220812015305 77 183 0.0 0.0 0.00 0.00 0.00 87 1018.2
20220812014804 77 183 0.0 0.0 0.00 0.00 0.00 87 1018.2
20220812014303 77 183 0.0 0.0 0.00 0.00 0.00 87 1018.1
20220812013804 77 183 0.0 0.0 0.00 0.00 0.00 87 1018.1
20220812012804 77 183 0.0 0.0 0.00 0.00 0.00 87 1017.8
20220812011804 78 183 0.0 0.0 0.00 0.00 0.00 86 1017.9
20220812011303 78 183 0.0 0.0 0.00 0.00 0.00 87 1017.7
20220812010803 78 183 0.0 0.0 0.00 0.00 0.00 86 1017.7
20220812005803 78 183 0.0 0.0 0.00 0.00 0.00 85 1017.7
20220812005304 78 183 0.0 0.0 0.00 0.00 0.00 85 1017.6
20220812004303 79 183 0.0 0.0 0.00 0.00 0.00 84 1017.6
20220812003303 79 182 0.0 0.0 0.00 0.00 0.00 85 1017.5
20220812002804 79 182 0.0 0.0 0.00 0.00 0.00 84 1017.4
20220812002305 80 182 0.0 0.0 0.00 0.00 0.00 84 1017.3
20220812001804 80 182 0.0 0.0 0.00 0.00 0.00 84 1017.2
20220812001303 80 182 0.0 0.0 0.00 0.00 0.00 84 1017.2
20220812000804 80 182 0.0 0.0 0.00 0.00 0.00 84 1016.9
20220811234304 81 182 0.0 0.0 0.00 0.00 0.00 83 1017.1
20220811233804 81 182 0.0 0.0 0.00 0.00 0.00 83 1017.1
20220811232803 81 182 0.0 0.0 0.00 0.00 0.00 82 1017.1
20220811232304 81 182 0.0 0.0 0.00 0.00 0.00 82 1017.1
20220811230304 81 182 0.0 1.0 0.00 0.00 0.00 81 1017.1
20220811225803 82 182 0.0 1.0 0.00 0.00 0.00 81 1017.1
20220811224803 82 187 0.0 0.0 0.00 0.00 0.00 80 1017.1
20220811224304 82 187 0.0 5.0 0.00 0.00 0.00 79 1017.0
20220811223803 82 186 0.0 5.0 0.00 0.00 0.00 80 1017.0
20220811223303 83 165 0.0 5.0 0.00 0.00 0.00 80 1016.9
20220811222804 83 142 0.0 0.0 0.00 0.00 0.00 79 1016.8
20220811222304 83 60 0.0 0.0 0.00 0.00 0.00 78 1016.9
20220811221803 84 60 0.0 0.0 0.00 0.00 0.00 78 1017.0
20220811220804 84 60 0.0 3.0 0.00 0.00 0.00 81 1016.9
20220811214803 84 241 0.0 2.0 0.00 0.00 0.00 80 1016.8
20220811214304 83 241 0.0 2.0 0.00 0.00 0.00 79 1016.8
20220811213304 83 271 0.0 0.0 0.00 0.00 0.00 79 1016.9
20220811212803 84 271 0.0 0.0 0.00 0.00 0.00 77 1017.0
20220811211304 86 258 0.0 2.0 0.00 0.00 0.00 75 1017.0
20220811205803 87 259 0.0 1.0 0.00 0.00 0.00 73 1017.1
20220811203803 88 237 0.0 0.0 0.00 0.01 0.00 72 1017.1
20220811203304 88 225 0.0 0.0 0.00 0.02 0.00 73 1017.2
20220811202304 87 246 0.0 2.0 0.00 0.03 0.00 73 1017.4
20220811201803 87 252 0.0 2.0 0.00 0.05 0.00 73 1017.7
20220811194304 86 262 0.0 1.0 0.00 0.11 0.00 78 1018.2
20220811192804 87 259 2.0 3.0 0.00 0.14 0.00 72 1018.1
20220811191803 88 282 0.0 2.0 0.00 0.16 0.00 73 1018.4
20220811191303 87 286 0.0 2.0 0.00 0.16 0.00 75 1018.3
20220811190304 87 285 0.0 0.0 0.00 0.17 0.00 73 1018.5
20220811185305 86 286 0.0 2.0 0.00 0.17 0.00 77 1018.5
20220811184804 86 286 1.0 2.0 0.00 0.18 0.00 76 1018.5
20220811184304 86 238 0.0 0.0 0.00 0.18 0.00 77 1018.6
20220811183303 86 238 0.0 0.0 0.00 0.20 0.00 81 1018.8
20220811182804 85 238 0.0 0.0 0.00 0.22 0.00 80 1018.8
20220811182305 85 238 0.0 2.0 0.00 0.24 0.00 80 1019.1
20220811181303 84 238 0.0 2.0 0.00 0.33 0.00 81 1019.2
20220811175305 83 238 0.0 0.0 0.00 1.37 0.00 81 1019.1
20220811174804 84 238 0.0 0.0 0.00 1.99 0.00 81 1019.0
20220811172803 83 236 0.0 0.0 0.00 3.14 0.00 83 1019.2
20220811172305 83 236 0.0 0.0 0.00 3.14 0.00 81 1019.3
20220811170303 82 234 0.0 1.0 0.00 3.14 0.00 87 1019.5
20220811165804 81 234 0.0 1.0 0.00 3.14 0.00 85 1019.6
20220811165304 81 9 0.0 0.0 0.00 3.14 0.00 86 1019.7
20220811164303 80 9 0.0 0.0 0.00 3.14 0.00 88 1019.9
20220811161803 77 238 0.0 0.0 0.00 3.14 0.00 92 1019.9
20220811160304 76 237 0.0 0.0 0.00 3.14 0.00 95 1020.2
20220811154303 75 236 0.0 1.0 0.00 3.14 0.00 97 1020.4
20220811153302 75 236 0.0 0.0 0.00 3.14 0.00 97 1020.3
20220811152802 75 236 0.0 0.0 0.00 3.14 0.00 97 1020.3
20220811152305 75 236 0.0 0.0 0.00 3.14 0.00 97 1020.2
20220811151803 75 236 0.0 0.0 0.00 3.14 0.00 97 1020.2
20220811151302 74 236 0.0 0.0 0.00 3.14 0.00 97 1020.2
20220811150302 74 236 0.0 1.0 0.00 3.14 0.00 97 1020.2
20220811145304 74 236 0.0 0.0 0.00 3.14 0.00 97 1020.2
20220811144802 74 236 0.0 0.0 0.00 3.14 0.00 98 1020.2
20220811144303 74 236 0.0 0.0 0.00 3.14 0.00 98 1020.2
20220811143803 74 236 0.0 0.0 0.00 3.14 0.00 98 1020.1
20220811143303 74 236 0.0 0.0 0.00 3.14 0.00 98 1020.0
20220811142802 74 236 0.0 1.0 0.00 3.14 0.00 98 1020.1
20220811142304 74 236 0.0 1.0 0.00 3.14 0.00 98 1020.0
20220811140302 73 11 0.0 0.0 0.00 3.14 0.00 98 1019.8
20220811135802 73 10 0.0 0.0 0.00 3.14 0.00 98 1019.8
20220811135305 73 10 0.0 0.0 0.00 3.14 0.00 98 1019.9
20220811134803 73 10 0.0 0.0 0.00 3.14 0.00 98 1020.0
20220811134303 73 10 0.0 0.0 0.00 3.14 0.00 98 1020.1
20220811133803 73 10 0.0 0.0 0.00 3.14 0.00 98 1020.1
20220811133302 72 10 0.0 0.0 0.00 3.14 0.00 98 1020.0
20220811131803 72 103 0.0 0.0 0.00 3.14 0.00 98 1020.1
20220811124303 71 166 0.0 0.0 0.00 3.14 0.00 97 1019.9
20220811123303 71 166 0.0 0.0 0.00 3.14 0.00 97 1020.0
20220811121803 71 166 0.0 0.0 0.00 3.14 0.00 97 1019.8
20220811121302 71 165 0.0 0.0 0.00 3.14 0.00 97 1019.6
20220811114302 70 166 0.0 0.0 0.00 3.14 0.00 97 1019.6
20220811112802 70 166 0.0 0.0 0.00 3.14 0.00 97 1019.4
20220811111803 70 165 0.0 0.0 0.00 3.14 0.00 97 1019.3
20220811111302 70 166 0.0 0.0 0.00 3.14 0.00 97 1019.3
20220811110803 70 166 0.0 0.0 0.00 3.14 0.00 97 1019.3
20220811110302 70 166 0.0 0.0 0.00 3.14 0.00 97 1019.3
20220811105802 70 167 0.0 0.0 0.00 3.14 0.00 97 1019.3
20220811105305 70 167 0.0 0.0 0.00 3.14 0.00 97 1019.3
20220811104303 70 167 0.0 0.0 0.00 3.14 0.00 97 1019.3
20220811102802 70 167 0.0 0.0 0.00 3.14 0.00 97 1019.2
20220811100302 70 167 0.0 0.0 0.00 3.14 0.00 97 1019.4
20220811095802 70 167 0.0 0.0 0.00 3.14 0.00 97 1019.4
20220811095305 70 167 0.0 0.0 0.00 3.14 0.00 97 1019.4
20220811094802 70 167 0.0 0.0 0.00 3.14 0.00 97 1019.3
20220811094302 70 167 0.0 0.0 0.00 3.14 0.00 97 1019.3
20220811093302 70 167 0.0 0.0 0.00 3.14 0.00 97 1019.3
20220811092304 70 167 0.0 0.0 0.00 3.14 0.00 97 1019.3
20220811091802 70 167 0.0 0.0 0.00 3.14 0.00 97 1019.3
20220811090803 70 167 0.0 0.0 0.00 3.14 0.00 97 1019.3
20220811090303 70 167 0.0 0.0 0.00 3.14 0.00 97 1019.4
20220811085802 70 167 0.0 0.0 0.00 3.14 0.00 97 1019.4
20220811085304 70 167 0.0 0.0 0.00 3.14 0.00 97 1019.5
20220811084303 70 167 0.0 0.0 0.00 3.14 0.00 97 1019.5
20220811083802 70 167 0.0 0.0 0.00 3.14 0.00 97 1019.5
20220811083303 70 167 0.0 0.0 0.00 3.14 0.00 97 1019.5
20220811082802 70 167 0.0 0.0 0.00 3.14 0.00 97 1019.5
20220811082305 70 167 0.0 0.0 0.00 3.14 0.00 97 1019.6
20220811075304 70 167 0.0 0.0 0.00 3.14 0.00 97 1019.5
20220811073803 70 167 0.0 0.0 0.00 3.14 0.00 97 1019.6
20220811072304 70 167 0.0 0.0 0.00 3.14 0.00 97 1019.6
20220811071803 70 167 0.0 0.0 0.00 3.14 0.00 97 1019.7
20220811071303 70 167 0.0 0.0 0.00 3.14 0.00 97 1019.7
20220811065802 70 167 0.0 0.0 0.00 3.14 0.00 97 1019.8
20220811065304 70 167 0.0 0.0 0.00 3.14 0.00 97 1019.7
20220811062802 71 167 0.0 0.0 0.00 3.14 0.00 97 1019.8
20220811060802 71 168 0.0 0.0 0.00 3.14 0.00 97 1020.1
20220811055304 71 168 0.0 0.0 0.00 3.14 0.00 97 1020.0
20220811054303 71 168 0.0 0.0 0.00 3.14 0.00 97 1020.0
20220811053302 71 168 0.0 0.0 0.00 3.14 0.00 97 1019.9
20220811052803 71 168 0.0 0.0 0.00 3.14 0.00 97 1020.0
20220811052304 71 168 0.0 0.0 0.00 3.14 0.00 97 1019.8
20220811045802 71 168 0.0 0.0 0.00 3.14 3.14 97 1019.8
20220811043802 71 168 0.0 0.0 0.00 3.14 3.14 97 1020.0
20220811042803 71 168 0.0 0.0 0.00 3.14 3.14 97 1020.0
20220811042305 71 168 0.0 0.0 0.00 3.14 3.14 97 1020.1
20220811041302 72 168 0.0 0.0 0.00 3.14 3.14 97 1020.0
20220811040303 72 168 0.0 0.0 0.00 3.14 3.14 96 1020.0
20220811033803 72 168 0.0 0.0 0.00 3.14 3.14 96 1020.1
20220811030303 72 168 0.0 0.0 0.00 3.14 3.14 97 1020.2
20220811025802 72 168 0.0 0.0 0.00 3.14 3.14 96 1020.2
20220811025304 72 168 0.0 0.0 0.00 3.14 3.14 96 1020.3
20220811024302 72 168 0.0 0.0 0.00 3.14 3.14 96 1020.3
20220811023303 73 168 0.0 0.0 0.00 3.14 3.14 96 1020.3
20220811022803 73 168 0.0 0.0 0.00 3.14 3.14 96 1020.4
20220811022304 73 168 0.0 0.0 0.00 3.14 3.14 96 1020.5
20220811021803 73 168 0.0 0.0 0.00 3.14 3.14 96 1020.4